| time (UTC) | temp F | wind direction | speed MPH | gust MPH | rain 1hr in | rain 24hr in | rain mn in | humidity % | barometer mb |
| 20260505204200 | 77 | 243 | 2.0 | 17.0 | 0.00 | 0.00 | 0.00 | 27 | 1009.0 |
| 20260505203701 | 76 | 248 | 2.0 | 17.0 | 0.00 | 0.00 | 0.00 | 28 | 1009.0 |
| 20260505203202 | 76 | 248 | 1.0 | 9.0 | 0.00 | 0.00 | 0.00 | 28 | 1009.0 |
| 20260505202701 | 76 | 202 | 3.0 | 12.0 | 0.00 | 0.00 | 0.00 | 28 | 1009.1 |
| 20260505202201 | 76 | 230 | 5.0 | 17.0 | 0.00 | 0.00 | 0.00 | 29 | 1009.1 |
| 20260505201702 | 76 | 242 | 2.0 | 17.0 | 0.00 | 0.00 | 0.00 | 29 | 1009.1 |
| 20260505201200 | 76 | 225 | 2.0 | 17.0 | 0.00 | 0.00 | 0.00 | 30 | 1009.1 |
| 20260505200702 | 76 | 174 | 3.0 | 17.0 | 0.00 | 0.00 | 0.00 | 30 | 1009.3 |
| 20260505200422 | 76 | 219 | 2.0 | 15.0 | 0.00 | 0.00 | 0.00 | 30 | 1009.3 |
| 20260505195921 | 76 | 207 | 4.0 | 17.0 | 0.00 | 0.00 | 0.00 | 30 | 1009.2 |
| 20260505195201 | 76 | 229 | 5.0 | 17.0 | 0.00 | 0.00 | 0.00 | 30 | 1009.3 |
| 20260505194700 | 76 | 236 | 2.0 | 14.0 | 0.00 | 0.00 | 0.00 | 32 | 1009.3 |
| 20260505194201 | 75 | 241 | 1.0 | 10.0 | 0.00 | 0.00 | 0.00 | 32 | 1009.3 |
| 20260505193701 | 75 | 208 | 3.0 | 19.0 | 0.00 | 0.00 | 0.00 | 32 | 1009.4 |
| 20260505193201 | 75 | 229 | 4.0 | 19.0 | 0.00 | 0.00 | 0.00 | 32 | 1009.4 |
| 20260505192702 | 76 | 242 | 3.0 | 16.0 | 0.00 | 0.00 | 0.00 | 32 | 1009.5 |
| 20260505192202 | 75 | 179 | 2.0 | 14.0 | 0.00 | 0.00 | 0.00 | 33 | 1009.4 |
| 20260505191701 | 74 | 250 | 4.0 | 14.0 | 0.00 | 0.00 | 0.00 | 33 | 1009.5 |
| 20260505191201 | 75 | 217 | 4.0 | 14.0 | 0.00 | 0.00 | 0.00 | 34 | 1009.6 |
| 20260505190702 | 74 | 242 | 1.0 | 10.0 | 0.00 | 0.00 | 0.00 | 36 | 1009.6 |
| 20260505190202 | 74 | 235 | 0.0 | 7.0 | 0.00 | 0.00 | 0.00 | 37 | 1009.6 |
| 20260505185701 | 74 | 232 | 0.0 | 13.0 | 0.00 | 0.00 | 0.00 | 38 | 1009.7 |
| 20260505185201 | 73 | 253 | 2.0 | 13.0 | 0.00 | 0.00 | 0.00 | 38 | 1009.7 |
| 20260505184700 | 73 | 212 | 2.0 | 12.0 | 0.00 | 0.00 | 0.00 | 38 | 1009.9 |
| 20260505184200 | 73 | 198 | 1.0 | 8.0 | 0.00 | 0.00 | 0.00 | 39 | 1009.8 |
| 20260505183921 | 73 | 192 | 1.0 | 8.0 | 0.00 | 0.00 | 0.00 | 39 | 1009.9 |
| 20260505183200 | 73 | 223 | 0.0 | 5.0 | 0.00 | 0.00 | 0.00 | 38 | 1009.8 |
| 20260505182701 | 73 | 225 | 1.0 | 12.0 | 0.00 | 0.00 | 0.00 | 38 | 1010.0 |
| 20260505182201 | 73 | 198 | 1.0 | 12.0 | 0.00 | 0.00 | 0.00 | 39 | 1010.1 |
| 20260505181922 | 73 | 288 | 0.0 | 7.0 | 0.00 | 0.00 | 0.00 | 38 | 1010.0 |
| 20260505181202 | 73 | 242 | 0.0 | 7.0 | 0.00 | 0.00 | 0.00 | 38 | 1010.1 |
| 20260505180703 | 73 | 196 | 0.0 | 6.0 | 0.00 | 0.00 | 0.00 | 39 | 1010.1 |
| 20260505180201 | 73 | 227 | 0.0 | 5.0 | 0.00 | 0.00 | 0.00 | 39 | 1010.1 |
| 20260505175701 | 72 | 214 | 1.0 | 12.0 | 0.00 | 0.00 | 0.00 | 39 | 1010.1 |
| 20260505175201 | 72 | 180 | 1.0 | 12.0 | 0.00 | 0.00 | 0.00 | 39 | 1010.1 |
| 20260505174702 | 72 | 232 | 1.0 | 6.0 | 0.00 | 0.00 | 0.00 | 38 | 1010.1 |
| 20260505174201 | 72 | 207 | 0.0 | 5.0 | 0.00 | 0.00 | 0.00 | 41 | 1010.0 |
| 20260505174146 | 72 | 165 | 0.0 | 4.0 | 0.00 | 0.00 | 0.00 | 41 | 1010.1 |
| 20260505173418 | 72 | 203 | 0.0 | 5.0 | 0.00 | 0.00 | 0.00 | 41 | 1010.0 |
| 20260505172702 | 72 | 172 | 1.0 | 12.0 | 0.00 | 0.00 | 0.00 | 40 | 1009.9 |
| 20260505172201 | 72 | 196 | 0.0 | 12.0 | 0.00 | 0.00 | 0.00 | 40 | 1009.9 |
| 20260505171655 | 71 | 179 | 0.0 | 3.0 | 0.00 | 0.00 | 0.00 | 41 | 1010.0 |
| 20260505171150 | 71 | 217 | 0.0 | 3.0 | 0.00 | 0.00 | 0.00 | 41 | 1010.0 |
| 20260505170644 | 70 | 188 | 0.0 | 7.0 | 0.00 | 0.00 | 0.00 | 43 | 1010.1 |
| 20260505170137 | 69 | 190 | 0.0 | 7.0 | 0.00 | 0.00 | 0.00 | 42 | 1010.2 |
| 20260505165632 | 69 | 225 | 0.0 | 5.0 | 0.00 | 0.00 | 0.00 | 44 | 1010.0 |
| 20260505165129 | 68 | 217 | 0.0 | 6.0 | 0.00 | 0.00 | 0.00 | 43 | 1010.1 |
| 20260505164629 | 68 | 211 | 0.0 | 7.0 | 0.00 | 0.00 | 0.00 | 43 | 1010.1 |
| 20260505164130 | 68 | 173 | 0.0 | 7.0 | 0.00 | 0.00 | 0.00 | 44 | 1010.2 |
| 20260505163629 | 68 | 203 | 0.0 | 7.0 | 0.00 | 0.00 | 0.00 | 41 | 1010.2 |
| 20260505163129 | 68 | 229 | 0.0 | 7.0 | 0.00 | 0.00 | 0.00 | 41 | 1010.2 |
| 20260505162901 | 69 | 225 | 0.0 | 7.0 | 0.00 | 0.00 | 0.00 | 43 | 1010.1 |
| 20260505162356 | 69 | 217 | 0.0 | 11.0 | 0.00 | 0.00 | 0.00 | 43 | 1010.1 |
| 20260505161628 | 69 | 229 | 1.0 | 11.0 | 0.00 | 0.00 | 0.00 | 45 | 1010.1 |
| 20260505161129 | 68 | 238 | 0.0 | 9.0 | 0.00 | 0.00 | 0.00 | 48 | 1010.0 |
| 20260505160629 | 68 | 197 | 0.0 | 6.0 | 0.00 | 0.00 | 0.00 | 48 | 1010.1 |
| 20260505160130 | 68 | 210 | 0.0 | 4.0 | 0.00 | 0.00 | 0.00 | 48 | 1010.1 |
| 20260505152625 | 67 | 221 | 0.0 | 5.0 | 0.00 | 0.00 | 0.00 | 55 | 1010.2 |
| 20260505152119 | 67 | 225 | 0.0 | 5.0 | 0.00 | 0.00 | 0.00 | 54 | 1010.2 |
| 20260505151612 | 67 | 231 | 0.0 | 2.0 | 0.00 | 0.00 | 0.00 | 54 | 1010.1 |
| 20260505151108 | 67 | 193 | 0.0 | 6.0 | 0.00 | 0.00 | 0.00 | 54 | 1010.0 |
| 20260505150608 | 67 | 185 | 0.0 | 6.0 | 0.00 | 0.00 | 0.00 | 54 | 1010.0 |
| 20260505150333 | 67 | 206 | 1.0 | 8.0 | 0.00 | 0.00 | 0.00 | 54 | 1010.0 |
| 20260505124601 | 65 | 211 | 0.0 | 0.0 | 0.00 | 0.00 | 0.00 | 55 | 1009.2 |
| 20260505124101 | 65 | 213 | 0.0 | 0.0 | 0.00 | 0.00 | 0.00 | 55 | 1009.2 |
| 20260505123601 | 65 | 208 | 0.0 | 0.0 | 0.00 | 0.00 | 0.00 | 55 | 1009.2 |
| 20260505123101 | 64 | 201 | 0.0 | 0.0 | 0.00 | 0.00 | 0.00 | 55 | 1009.1 |
| 20260505122601 | 64 | 214 | 0.0 | 0.0 | 0.00 | 0.00 | 0.00 | 55 | 1009.0 |
| 20260505122102 | 64 | 211 | 0.0 | 0.0 | 0.00 | 0.00 | 0.00 | 55 | 1009.0 |
| 20260505121556 | 65 | 217 | 0.0 | 0.0 | 0.00 | 0.00 | 0.00 | 54 | 1009.0 |
| 20260505121050 | 65 | 217 | 0.0 | 0.0 | 0.00 | 0.00 | 0.00 | 53 | 1008.9 |
| 20260505120544 | 65 | 217 | 0.0 | 0.0 | 0.00 | 0.00 | 0.00 | 53 | 1009.0 |
| 20260505120042 | 65 | 217 | 0.0 | 0.0 | 0.00 | 0.00 | 0.00 | 53 | 1008.9 |
| 20260505115542 | 65 | 217 | 0.0 | 0.0 | 0.00 | 0.00 | 0.00 | 52 | 1008.8 |
| 20260505115042 | 65 | 217 | 0.0 | 0.0 | 0.00 | 0.00 | 0.00 | 52 | 1008.7 |
| 20260505114542 | 65 | 217 | 0.0 | 0.0 | 0.00 | 0.00 | 0.00 | 52 | 1008.7 |
| 20260505114042 | 66 | 217 | 0.0 | 0.0 | 0.00 | 0.00 | 0.00 | 51 | 1008.7 |
| 20260505113541 | 66 | 217 | 0.0 | 0.0 | 0.00 | 0.00 | 0.00 | 51 | 1008.7 |
| 20260505113042 | 66 | 217 | 0.0 | 0.0 | 0.00 | 0.00 | 0.00 | 51 | 1008.7 |
| 20260505112542 | 66 | 192 | 0.0 | 0.0 | 0.00 | 0.00 | 0.00 | 50 | 1008.8 |
| 20260505112041 | 66 | 192 | 0.0 | 0.0 | 0.00 | 0.00 | 0.00 | 50 | 1008.7 |
| 20260505111542 | 66 | 192 | 0.0 | 0.0 | 0.00 | 0.00 | 0.00 | 50 | 1008.5 |
| 20260505111040 | 66 | 192 | 0.0 | 0.0 | 0.00 | 0.00 | 0.00 | 50 | 1008.6 |
| 20260505110540 | 66 | 192 | 0.0 | 0.0 | 0.00 | 0.00 | 0.00 | 50 | 1008.6 |
| 20260505102038 | 67 | 190 | 0.0 | 1.0 | 0.00 | 0.00 | 0.00 | 48 | 1009.1 |
| 20260505101530 | 68 | 196 | 0.0 | 1.0 | 0.00 | 0.00 | 0.00 | 47 | 1009.2 |
| 20260505101030 | 68 | 208 | 0.0 | 1.0 | 0.00 | 0.00 | 0.00 | 46 | 1009.3 |
| 20260505100529 | 68 | 209 | 0.0 | 1.0 | 0.00 | 0.00 | 0.00 | 46 | 1009.3 |
| 20260505100029 | 68 | 197 | 0.0 | 6.0 | 0.00 | 0.00 | 0.00 | 45 | 1009.3 |
| 20260505095529 | 68 | 229 | 0.0 | 6.0 | 0.00 | 0.00 | 0.00 | 44 | 1009.4 |
| 20260505095028 | 68 | 188 | 0.0 | 0.0 | 0.00 | 0.00 | 0.00 | 43 | 1009.5 |
| 20260505094529 | 68 | 201 | 0.0 | 0.0 | 0.00 | 0.00 | 0.00 | 42 | 1009.5 |
| 20260505094029 | 69 | 215 | 0.0 | 0.0 | 0.00 | 0.00 | 0.00 | 42 | 1009.7 |
| 20260505093530 | 69 | 218 | 0.0 | 0.0 | 0.00 | 0.00 | 0.00 | 42 | 1009.7 |
| 20260505093029 | 69 | 201 | 0.0 | 0.0 | 0.00 | 0.00 | 0.00 | 42 | 1009.6 |
| 20260505092528 | 69 | 223 | 0.0 | 0.0 | 0.00 | 0.00 | 0.00 | 41 | 1009.7 |
| 20260505092248 | 69 | 242 | 0.0 | 0.0 | 0.00 | 0.00 | 0.00 | 41 | 1009.8 |
| 20260505091750 | 69 | 217 | 0.0 | 0.0 | 0.00 | 0.00 | 0.00 | 40 | 1009.7 |
| 20260505091247 | 69 | 217 | 0.0 | 0.0 | 0.00 | 0.00 | 0.00 | 40 | 1009.7 |
| 20260505090526 | 69 | 217 | 0.0 | 0.0 | 0.00 | 0.00 | 0.00 | 40 | 1009.6 |
| 20260505090025 | 69 | 216 | 0.0 | 0.0 | 0.00 | 0.00 | 0.00 | 39 | 1009.8 |
| 20260505085526 | 69 | 215 | 0.0 | 0.0 | 0.00 | 0.00 | 0.00 | 39 | 1009.7 |
| 20260505085024 | 70 | 238 | 0.0 | 0.0 | 0.00 | 0.00 | 0.00 | 39 | 1009.9 |
| 20260505084521 | 70 | 201 | 0.0 | 1.0 | 0.00 | 0.00 | 0.00 | 39 | 1009.9 |
| 20260505084021 | 70 | 208 | 0.0 | 1.0 | 0.00 | 0.00 | 0.00 | 39 | 1010.1 |
| 20260505083519 | 70 | 213 | 0.0 | 0.0 | 0.00 | 0.00 | 0.00 | 40 | 1010.1 |
| 20260505083020 | 69 | 225 | 0.0 | 0.0 | 0.00 | 0.00 | 0.00 | 39 | 1010.1 |
| 20260505082518 | 70 | 164 | 0.0 | 0.0 | 0.00 | 0.00 | 0.00 | 39 | 1010.1 |
| 20260505082015 | 70 | 164 | 0.0 | 0.0 | 0.00 | 0.00 | 0.00 | 39 | 1010.2 |
| 20260505081738 | 70 | 164 | 0.0 | 0.0 | 0.00 | 0.00 | 0.00 | 39 | 1010.1 |
| 20260505081234 | 70 | 164 | 0.0 | 0.0 | 0.00 | 0.00 | 0.00 | 39 | 1010.1 |
| 20260505080737 | 70 | 178 | 0.0 | 0.0 | 0.00 | 0.00 | 0.00 | 38 | 1009.8 |
| 20260505080008 | 70 | 178 | 0.0 | 0.0 | 0.00 | 0.00 | 0.00 | 38 | 1010.0 |
| 20260505075505 | 70 | 186 | 0.0 | 6.0 | 0.00 | 0.00 | 0.00 | 38 | 1010.2 |
| 20260505075001 | 70 | 170 | 0.0 | 6.0 | 0.00 | 0.00 | 0.00 | 38 | 1010.2 |
| 20260505074502 | 71 | 155 | 1.0 | 8.0 | 0.00 | 0.00 | 0.00 | 37 | 1010.1 |
| 20260505074000 | 71 | 141 | 1.0 | 13.0 | 0.00 | 0.00 | 0.00 | 37 | 1010.2 |
| 20260505073719 | 71 | 123 | 1.0 | 12.0 | 0.00 | 0.00 | 0.00 | 38 | 1010.1 |
| 20260505072948 | 71 | 150 | 0.0 | 8.0 | 0.00 | 0.00 | 0.00 | 40 | 1010.1 |
| 20260505072442 | 71 | 180 | 0.0 | 3.0 | 0.00 | 0.00 | 0.00 | 40 | 1010.1 |
| 20260505071936 | 71 | 176 | 0.0 | 3.0 | 0.00 | 0.00 | 0.00 | 40 | 1010.2 |
| 20260505071432 | 71 | 192 | 0.0 | 0.0 | 0.00 | 0.00 | 0.00 | 40 | 1010.1 |
| 20260505070932 | 71 | 208 | 0.0 | 0.0 | 0.00 | 0.00 | 0.00 | 40 | 1010.0 |
| 20260505070431 | 71 | 209 | 0.0 | 2.0 | 0.00 | 0.00 | 0.00 | 40 | 1010.0 |
| 20260505070155 | 71 | 224 | 0.0 | 2.0 | 0.00 | 0.00 | 0.00 | 40 | 1010.1 |
| 20260505065430 | 71 | 235 | 0.0 | 0.0 | 0.00 | 0.00 | 0.00 | 42 | 1010.1 |
| 20260505065152 | 71 | 225 | 0.0 | 1.0 | 0.00 | 0.00 | 0.00 | 42 | 1010.1 |
| 20260505064430 | 71 | 225 | 0.0 | 1.0 | 0.00 | 0.00 | 0.00 | 42 | 1009.9 |
| 20260505063930 | 71 | 240 | 0.0 | 0.0 | 0.00 | 0.00 | 0.00 | 43 | 1009.9 |
| 20260505063656 | 71 | 224 | 0.0 | 0.0 | 0.00 | 0.00 | 0.00 | 43 | 1009.8 |
| 20260505062929 | 71 | 226 | 0.0 | 0.0 | 0.00 | 0.00 | 0.00 | 43 | 1009.7 |
| 20260505062430 | 71 | 226 | 0.0 | 0.0 | 0.00 | 0.00 | 0.00 | 43 | 1009.7 |
| 20260505061929 | 71 | 233 | 0.0 | 0.0 | 0.00 | 0.00 | 0.00 | 43 | 1009.7 |
| 20260505061654 | 71 | 236 | 0.0 | 0.0 | 0.00 | 0.00 | 0.00 | 43 | 1009.7 |
| 20260505060929 | 72 | 235 | 0.0 | 0.0 | 0.00 | 0.00 | 0.00 | 43 | 1009.7 |
| 20260505060430 | 72 | 240 | 0.0 | 0.0 | 0.00 | 0.00 | 0.00 | 42 | 1009.6 |
| 20260505055929 | 72 | 249 | 0.0 | 1.0 | 0.00 | 0.00 | 0.00 | 42 | 1009.4 |
| 20260505055430 | 72 | 238 | 0.0 | 1.0 | 0.00 | 0.00 | 0.00 | 42 | 1009.5 |
| 20260505054930 | 72 | 223 | 0.0 | 0.0 | 0.00 | 0.00 | 0.00 | 42 | 1009.4 |
| 20260505054424 | 72 | 213 | 0.0 | 0.0 | 0.00 | 0.00 | 0.00 | 42 | 1009.6 |
| 20260505053924 | 72 | 216 | 0.0 | 0.0 | 0.00 | 0.00 | 0.00 | 42 | 1009.5 |
| 20260505053422 | 72 | 209 | 0.0 | 0.0 | 0.00 | 0.00 | 0.00 | 42 | 1009.8 |
| 20260505053149 | 72 | 241 | 0.0 | 0.0 | 0.00 | 0.00 | 0.00 | 41 | 1009.7 |
| 20260505052418 | 72 | 212 | 0.0 | 0.0 | 0.00 | 0.00 | 0.00 | 41 | 1009.8 |
| 20260505051916 | 72 | 229 | 0.0 | 0.0 | 0.00 | 0.00 | 0.00 | 41 | 1010.0 |
| 20260505051413 | 72 | 218 | 0.0 | 0.0 | 0.00 | 0.00 | 0.00 | 41 | 1010.0 |
| 20260505050915 | 72 | 228 | 0.0 | 0.0 | 0.00 | 0.00 | 0.00 | 41 | 1010.1 |
| 20260505050414 | 72 | 208 | 0.0 | 1.0 | 0.00 | 0.00 | 0.00 | 40 | 1010.2 |
| 20260505040908 | 73 | 229 | 0.0 | 0.0 | 0.00 | 0.00 | 0.00 | 41 | 1009.9 |
| 20260505040401 | 73 | 211 | 0.0 | 0.0 | 0.00 | 0.00 | 0.00 | 41 | 1010.0 |
| 20260505040350 | 73 | 194 | 0.0 | 1.0 | 0.00 | 0.00 | 0.00 | 41 | 1009.9 |
| 20260505035401 | 73 | 236 | 0.0 | 1.0 | 0.00 | 0.00 | 0.00 | 41 | 1009.9 |
| 20260505035039 | 73 | 232 | 0.0 | 0.0 | 0.00 | 0.00 | 0.00 | 41 | 1009.8 |
| 20260505035029 | 73 | 223 | 0.0 | 0.0 | 0.00 | 0.00 | 0.00 | 41 | 1009.9 |
| 20260505034809 | 73 | 232 | 0.0 | 0.0 | 0.00 | 0.00 | 0.00 | 41 | 1009.5 |
| 20260505034327 | 73 | 233 | 0.0 | 0.0 | 0.00 | 0.00 | 0.00 | 41 | 1009.6 |
| 20260505032901 | 73 | 219 | 0.0 | 0.0 | 0.00 | 0.00 | 0.00 | 41 | 1009.4 |
| 20260505032401 | 73 | 236 | 0.0 | 0.0 | 0.00 | 0.00 | 0.00 | 41 | 1009.4 |
| 20260505031901 | 73 | 242 | 0.0 | 0.0 | 0.00 | 0.00 | 0.00 | 41 | 1009.3 |
| 20260505031401 | 73 | 219 | 0.0 | 0.0 | 0.00 | 0.00 | 0.00 | 41 | 1009.3 |
| 20260505030901 | 73 | 234 | 0.0 | 0.0 | 0.00 | 0.00 | 0.00 | 41 | 1009.2 |
| 20260505030401 | 73 | 232 | 0.0 | 0.0 | 0.00 | 0.00 | 0.00 | 41 | 1009.1 |
| 20260505025901 | 73 | 233 | 0.0 | 0.0 | 0.00 | 0.00 | 0.00 | 40 | 1009.1 |
| 20260505025620 | 73 | 247 | 0.0 | 0.0 | 0.00 | 0.00 | 0.00 | 40 | 1009.0 |
| 20260505024901 | 73 | 233 | 0.0 | 0.0 | 0.00 | 0.00 | 0.00 | 40 | 1009.1 |
| 20260505024400 | 73 | 225 | 0.0 | 0.0 | 0.00 | 0.00 | 0.00 | 40 | 1009.2 |
| 20260505023901 | 73 | 248 | 0.0 | 0.0 | 0.00 | 0.00 | 0.00 | 41 | 1009.2 |
| 20260505023624 | 74 | 234 | 0.0 | 0.0 | 0.00 | 0.00 | 0.00 | 41 | 1009.3 |
| 20260505022901 | 74 | 242 | 0.0 | 4.0 | 0.00 | 0.00 | 0.00 | 41 | 1009.1 |
| 20260505022402 | 74 | 231 | 0.0 | 4.0 | 0.00 | 0.00 | 0.00 | 41 | 1009.1 |
| 20260505021901 | 74 | 225 | 0.0 | 1.0 | 0.00 | 0.00 | 0.00 | 41 | 1009.0 |
| 20260505021402 | 74 | 236 | 0.0 | 1.0 | 0.00 | 0.00 | 0.00 | 40 | 1009.0 |
| 20260505020901 | 74 | 216 | 0.0 | 1.0 | 0.00 | 0.00 | 0.00 | 40 | 1009.0 |
| 20260505020401 | 74 | 219 | 0.0 | 0.0 | 0.00 | 0.00 | 0.00 | 40 | 1009.1 |
| 20260505015901 | 74 | 231 | 0.0 | 0.0 | 0.00 | 0.00 | 0.00 | 40 | 1009.0 |
| 20260505015402 | 74 | 238 | 0.0 | 8.0 | 0.00 | 0.00 | 0.00 | 39 | 1009.0 |
| 20260505014901 | 74 | 221 | 0.0 | 8.0 | 0.00 | 0.00 | 0.00 | 39 | 1008.9 |
| 20260505014401 | 75 | 232 | 0.0 | 0.0 | 0.00 | 0.00 | 0.00 | 38 | 1009.0 |
| 20260505014122 | 75 | 251 | 0.0 | 0.0 | 0.00 | 0.00 | 0.00 | 37 | 1008.9 |
| 20260505013359 | 75 | 227 | 0.0 | 2.0 | 0.00 | 0.00 | 0.00 | 37 | 1008.8 |
| 20260505012852 | 75 | 225 | 0.0 | 2.0 | 0.00 | 0.00 | 0.00 | 37 | 1008.8 |
| 20260505012345 | 75 | 231 | 0.0 | 1.0 | 0.00 | 0.00 | 0.00 | 36 | 1008.9 |
| 20260505011840 | 75 | 252 | 0.0 | 1.0 | 0.00 | 0.00 | 0.00 | 36 | 1008.9 |
| 20260505011333 | 75 | 265 | 0.0 | 1.0 | 0.00 | 0.00 | 0.00 | 36 | 1008.8 |
| 20260505010831 | 75 | 253 | 0.0 | 0.0 | 0.00 | 0.00 | 0.00 | 36 | 1008.8 |
| 20260505010329 | 76 | 231 | 0.0 | 0.0 | 0.00 | 0.00 | 0.00 | 36 | 1008.9 |
| 20260505005829 | 76 | 229 | 0.0 | 0.0 | 0.00 | 0.00 | 0.00 | 36 | 1008.9 |
| 20260505005329 | 76 | 215 | 0.0 | 0.0 | 0.00 | 0.00 | 0.00 | 36 | 1008.9 |
| 20260505004829 | 76 | 242 | 0.0 | 0.0 | 0.00 | 0.00 | 0.00 | 36 | 1009.0 |
| 20260505004553 | 76 | 255 | 0.0 | 0.0 | 0.00 | 0.00 | 0.00 | 36 | 1008.9 |
| 20260505004311 | 76 | 214 | 0.0 | 0.0 | 0.00 | 0.00 | 0.00 | 36 | 1009.0 |
| 20260505003331 | 76 | 245 | 0.0 | 0.0 | 0.00 | 0.00 | 0.00 | 36 | 1009.1 |
| 20260505002829 | 76 | 237 | 0.0 | 0.0 | 0.00 | 0.00 | 0.00 | 36 | 1009.1 |
| 20260505002330 | 77 | 231 | 0.0 | 0.0 | 0.00 | 0.00 | 0.00 | 36 | 1009.1 |
| 20260505001829 | 77 | 236 | 0.0 | 0.0 | 0.00 | 0.00 | 0.00 | 35 | 1009.2 |
| 20260505001550 | 77 | 235 | 0.0 | 0.0 | 0.00 | 0.00 | 0.00 | 35 | 1009.1 |
| 20260505001313 | 77 | 269 | 0.0 | 0.0 | 0.00 | 0.00 | 0.00 | 36 | 1009.2 |
| 20260505000329 | 77 | 246 | 0.0 | 0.0 | 0.00 | 0.00 | 0.00 | 36 | 1009.3 |
| 20260504235829 | 77 | 203 | 0.0 | 6.0 | 0.00 | 0.00 | 0.00 | 36 | 1009.3 |
| 20260504235329 | 77 | 215 | 0.0 | 6.0 | 0.00 | 0.00 | 0.00 | 35 | 1009.3 |
| 20260504234830 | 77 | 207 | 0.0 | 3.0 | 0.00 | 0.00 | 0.00 | 35 | 1009.3 |
| 20260504234330 | 77 | 218 | 0.0 | 3.0 | 0.00 | 0.00 | 0.00 | 36 | 1009.3 |
| 20260504233829 | 77 | 259 | 0.0 | 0.0 | 0.00 | 0.00 | 0.00 | 36 | 1009.3 |
| 20260504233329 | 77 | 259 | 0.0 | 0.0 | 0.00 | 0.00 | 0.00 | 37 | 1009.4 |
| 20260504232829 | 76 | 238 | 0.0 | 0.0 | 0.00 | 0.00 | 0.00 | 37 | 1009.2 |
| 20260504232330 | 76 | 298 | 0.0 | 0.0 | 0.00 | 0.00 | 0.00 | 37 | 1009.3 |
| 20260504231829 | 76 | 262 | 0.0 | 0.0 | 0.00 | 0.00 | 0.00 | 37 | 1009.3 |
| 20260504231329 | 76 | 211 | 0.0 | 0.0 | 0.00 | 0.00 | 0.00 | 37 | 1009.4 |
| 20260504230829 | 76 | 213 | 0.0 | 0.0 | 0.00 | 0.00 | 0.00 | 38 | 1009.4 |
| 20260504230329 | 76 | 236 | 0.0 | 1.0 | 0.00 | 0.00 | 0.00 | 38 | 1009.3 |
| 20260504225829 | 76 | 245 | 0.0 | 1.0 | 0.00 | 0.00 | 0.00 | 38 | 1009.4 |
| 20260504225328 | 76 | 239 | 0.0 | 0.0 | 0.00 | 0.00 | 0.00 | 39 | 1009.4 |
| 20260504224829 | 76 | 146 | 0.0 | 0.0 | 0.00 | 0.00 | 0.00 | 38 | 1009.4 |
| 20260504224330 | 76 | 169 | 0.0 | 1.0 | 0.00 | 0.00 | 0.00 | 38 | 1009.4 |
| 20260504223828 | 76 | 178 | 0.0 | 1.0 | 0.00 | 0.00 | 0.00 | 37 | 1009.6 |
| 20260504223329 | 76 | 269 | 0.0 | 0.0 | 0.00 | 0.00 | 0.00 | 37 | 1009.5 |
| 20260504222829 | 76 | 149 | 0.0 | 1.0 | 0.00 | 0.00 | 0.00 | 37 | 1009.6 |
| 20260504222329 | 76 | 173 | 0.0 | 1.0 | 0.00 | 0.00 | 0.00 | 37 | 1009.6 |
| 20260504221829 | 76 | 230 | 0.0 | 1.0 | 0.00 | 0.00 | 0.00 | 38 | 1009.7 |
| 20260504221329 | 76 | 221 | 0.0 | 0.0 | 0.00 | 0.00 | 0.00 | 38 | 1009.8 |
| 20260504220829 | 76 | 271 | 0.0 | 0.0 | 0.00 | 0.00 | 0.00 | 38 | 1009.8 |
| 20260504220329 | 76 | 59 | 0.0 | 0.0 | 0.00 | 0.00 | 0.00 | 38 | 1010.0 |
| 20260504215829 | 76 | 238 | 0.0 | 0.0 | 0.00 | 0.00 | 0.00 | 38 | 1010.2 |
| 20260504215551 | 76 | 223 | 0.0 | 3.0 | 0.00 | 0.00 | 0.00 | 39 | 1010.2 |
| 20260504214829 | 76 | 236 | 0.0 | 3.0 | 0.00 | 0.00 | 0.00 | 39 | 1010.3 |
| 20260504214328 | 76 | 212 | 0.0 | 5.0 | 0.00 | 0.00 | 0.00 | 39 | 1010.3 |
| 20260504213828 | 75 | 205 | 0.0 | 5.0 | 0.00 | 0.00 | 0.00 | 38 | 1010.6 |
| 20260504213328 | 75 | 217 | 0.0 | 3.0 | 0.00 | 0.00 | 0.00 | 38 | 1010.6 |
| 20260504212829 | 75 | 246 | 0.0 | 3.0 | 0.00 | 0.00 | 0.00 | 38 | 1010.6 |
| 20260504212329 | 75 | 242 | 0.0 | 3.0 | 0.00 | 0.00 | 0.00 | 38 | 1010.6 |
| 20260504211830 | 76 | 242 | 0.0 | 1.0 | 0.00 | 0.00 | 0.00 | 37 | 1010.6 |
| 20260504211329 | 76 | 243 | 0.0 | 1.0 | 0.00 | 0.00 | 0.00 | 37 | 1010.7 |
| 20260504210829 | 76 | 201 | 1.0 | 13.0 | 0.00 | 0.00 | 0.00 | 37 | 1011.0 |
| 20260504210329 | 76 | 223 | 1.0 | 13.0 | 0.00 | 0.00 | 0.00 | 37 | 1011.0 |
| 20260504205828 | 76 | 225 | 0.0 | 8.0 | 0.00 | 0.00 | 0.00 | 37 | 1010.9 |
| 20260504205326 | 76 | 267 | 0.0 | 0.0 | 0.00 | 0.00 | 0.00 | 36 | 1010.9 |
| 20260504204823 | 76 | 195 | 0.0 | 0.0 | 0.00 | 0.00 | 0.00 | 37 | 1011.0 |